TimeYAKT,TemperatureF,Dew PointF,Humidity,Sea Level PressureIn,VisibilityMPH,Wind Direction,Wind SpeedMPH,Gust SpeedMPH,PrecipitationIn,Events,Conditions,WindDirDegrees,DateUTC
12:00 AM,-49.0,-54.4,73,30.06,4.3,Calm,Calm,-,N/A,,Scattered Clouds,0,2013-02-12 14:00:00
1:00 AM,-50.8,-54.4,81,30.06,2.5,Calm,Calm,-,N/A,,Mostly Cloudy,0,2013-02-12 15:00:00
2:00 AM,-52.6,-56.2,81,30.06,1.6,Calm,Calm,-,N/A,,Mostly Cloudy,0,2013-02-12 16:00:00
3:00 AM,-50.8,-54.4,81,30.06,1.6,Calm,Calm,-,N/A,,Mostly Cloudy,0,2013-02-12 17:00:00
4:00 AM,-50,-55,58,30.08,12,SW,2.2,,,Snow,Snow,220,2013-02-12 18:00:00
4:00 AM,-49.0,-54.4,73,30.06,2.5,Calm,Calm,-,N/A,,Overcast,0,2013-02-12 18:00:00
5:00 AM,-49.0,-54.4,73,30.06,5.0,Calm,Calm,-,N/A,,Mostly Cloudy,0,2013-02-12 19:00:00
6:00 AM,-49.0,-54.4,73,30.06,5.0,Calm,Calm,-,N/A,,Mostly Cloudy,0,2013-02-12 20:00:00
7:00 AM,-50.8,-54.4,81,30.06,5.0,Calm,Calm,-,N/A,Snow,Light Snow,0,2013-02-12 21:00:00
8:30 AM,-50.8,-54.4,81,30.06,6.2,Calm,Calm,-,N/A,Snow,Light Snow,0,2013-02-12 22:30:00
9:00 AM,-50.8,-54.4,81,30.06,5.0,Calm,Calm,-,N/A,,Mostly Cloudy,0,2013-02-12 23:00:00
9:30 AM,-50.8,-54.4,81,30.09,5.0,Calm,Calm,-,N/A,,Scattered Clouds,0,2013-02-12 23:30:00
10:00 AM,-51,-55,61,30.10,12,Calm,Calm,,,,,,2013-02-13 00:00:00
10:00 AM,-50.8,-54.4,81,30.06,5.0,Calm,Calm,-,N/A,,Mostly Cloudy,0,2013-02-13 00:00:00
11:00 AM,-50.8,-54.4,81,30.09,5.0,Calm,Calm,-,N/A,,Scattered Clouds,0,2013-02-13 01:00:00
12:30 PM,-50.8,-54.4,81,30.09,-9999.0,Calm,Calm,-,N/A,,Clear,0,2013-02-13 02:30:00
1:00 PM,-50.8,-54.4,81,30.09,-9999.0,Calm,Calm,-,N/A,,Clear,0,2013-02-13 03:00:00
2:00 PM,-50.8,-54.4,81,30.09,-9999.0,Calm,Calm,-,N/A,,Clear,0,2013-02-13 04:00:00
3:00 PM,-50.8,-54.4,81,30.09,-9999.0,Calm,Calm,-,N/A,,Clear,0,2013-02-13 05:00:00
4:00 PM,-51,-55,63,30.13,2,WSW,2.2,,,,Mist,240,2013-02-13 06:00:00
4:00 PM,-50.8,-54.4,81,30.12,-9999.0,Calm,Calm,-,N/A,,Clear,0,2013-02-13 06:00:00
5:00 PM,-50.8,-54.4,81,30.12,-9999.0,Calm,Calm,-,N/A,,Clear,0,2013-02-13 07:00:00
6:00 PM,-50.8,-54.4,81,30.12,-9999.0,Calm,Calm,-,N/A,,Clear,0,2013-02-13 08:00:00
7:00 PM,-52.6,-56.2,81,30.12,-9999.0,Calm,Calm,-,N/A,,Clear,0,2013-02-13 09:00:00
8:00 PM,-52.6,-56.2,81,30.15,-9999.0,Calm,Calm,-,N/A,,Clear,0,2013-02-13 10:00:00
9:00 PM,-52.6,-56.2,81,30.15,-9999.0,Calm,Calm,-,N/A,,Clear,0,2013-02-13 11:00:00
10:00 PM,-51,-56,60,30.17,2,SSW,2.2,,,,Mist,210,2013-02-13 12:00:00
10:00 PM,-52.6,-56.2,81,30.15,-9999.0,Calm,Calm,-,N/A,,Clear,0,2013-02-13 12:00:00
11:00 PM,-52.6,-56.2,81,30.15,-9999.0,Calm,Calm,-,N/A,,Clear,0,2013-02-13 13:00:00